Oak Ridge, TN

11:20 PM EST on February 23, 2018 (GMT -0500)
Oak Ridge

Weather History for KOQT - January, 2013

Change the Weather History Date:

Thursday, January 17, 2013

  Actual Average (KTYS) Record (KTYS)
Temperature  
Mean Temperature 36 °F -  
Max Temperature 42 °F 44 °F 74 °F (1943)
Min Temperature 30 °F 27 °F -5 °F (1982)
Degree Days  
Heating Degree Days 29    
Moisture  
Dew Point 32 °F    
Average Humidity 85    
Maximum Humidity 100    
Minimum Humidity 55    
Precipitation  
Precipitation 0.60 in - - ()
Sea Level Pressure  
Sea Level Pressure 30.09 in    
Wind  
Wind Speed 5 mph (NE)    
Max Wind Speed 10 mph    
Max Gust Speed 25 mph    
Visibility 7 miles    
Events Rain , Snow    
Averages and records for this station are not official NWS values.
T = Trace of Precipitation, MM = Missing Value Source: NWS Daily Summary

Daily Weather History Graph

Daily Weather History Graph

Search for Another Location

Airport or City:

Trip Planner

Search our weather history database for the weather conditions in past years. The results will help you decide how hot, cold, wet, or windy it might be!

Date:

Astronomy

Jan. 17, 2013 Rise Set
Actual Time 7:46 AM EST 5:48 PM EST
Civil Twilight 7:18 AM EST 6:16 PM EST
Nautical Twilight 6:46 AM EST 6:47 PM EST
Astronomical Twilight 6:16 AM EST 7:18 PM EST
Moon 11:06 AM EST (1/17) No Moon Set
Length of Visible Light 10h 57m
Length of Day
10h 02m
Waxing Crescent, 37% of the Moon is Illuminated
Jan 17
Waxing Crescent
Jan 18
First Quarter
Jan 26
Full
Feb 3
Last Quarter
Feb 10
New

Hourly Weather History & Observations

Time (EST) Temp. Windchill Dew Point Humidity Pressure Visibility Wind Dir Wind Speed Gust Speed Precip Events Conditions
12:53 AM 42.1 °F - 39.0 °F 89% 30.11 in 10.0 mi Calm Calm - 0.00 in   Overcast
1:11 AM 42.8 °F - 39.2 °F 87% 30.08 in 10.0 mi Calm Calm - 0.00 in   Overcast
1:39 AM 42.8 °F 41.1 °F 39.2 °F 87% 30.08 in 10.0 mi NNE 3.5 mph - 0.00 in   Overcast
1:53 AM 42.1 °F - 39.0 °F 89% 30.09 in 10.0 mi Calm Calm - 0.00 in   Overcast
2:53 AM 41.0 °F 35.8 °F 37.0 °F 86% 30.08 in 10.0 mi NE 8.1 mph - 0.01 in Rain Light Rain
3:53 AM 39.9 °F 35.8 °F 35.1 °F 83% 30.08 in 10.0 mi NE 5.8 mph - 0.00 in   Overcast
4:53 AM 39.9 °F 35.1 °F 30.0 °F 68% 30.09 in 10.0 mi NE 6.9 mph - 0.00 in Rain Light Rain
5:53 AM 39.9 °F 35.1 °F 26.1 °F 58% 30.08 in 10.0 mi NE 6.9 mph - 0.00 in   Overcast
6:53 AM 39.9 °F 35.8 °F 25.0 °F 55% 30.06 in 10.0 mi NNE 5.8 mph - N/A   Overcast
7:53 AM 39.0 °F 34.8 °F 26.1 °F 60% 30.07 in 10.0 mi Variable 5.8 mph - 0.00 in Rain Light Rain
8:53 AM 37.9 °F 32.1 °F 28.9 °F 70% 30.06 in 10.0 mi East 8.1 mph - 0.01 in Rain Light Rain
9:53 AM 36.0 °F 31.1 °F 30.9 °F 82% 30.09 in 2.5 mi NE 5.8 mph - 0.11 in Rain Heavy Rain
10:03 AM 35.6 °F 29.9 °F 30.2 °F 81% 30.05 in 3.0 mi NE 6.9 mph - 0.04 in Rain Heavy Rain
10:11 AM 35.6 °F 29.2 °F 30.2 °F 81% 30.03 in 2.5 mi NE 8.1 mph 17.3 mph 0.08 in Rain Rain
10:32 AM 35.6 °F 28.0 °F 32.0 °F 87% 30.02 in 4.0 mi ENE 10.4 mph 18.4 mph 0.15 in Rain Rain
10:53 AM 36.0 °F 29.6 °F 33.1 °F 89% 30.05 in 5.0 mi NE 8.1 mph 19.6 mph 0.18 in Rain Light Rain
11:53 AM 36.0 °F 30.3 °F 35.1 °F 97% 30.02 in 6.0 mi Variable 6.9 mph 20.7 mph 0.08 in Rain Rain
12:53 PM 36.0 °F 29.6 °F 33.1 °F 89% 30.00 in 8.0 mi NNE 8.1 mph 20.7 mph 0.10 in Rain Light Rain
1:53 PM 36.0 °F 29.0 °F 33.1 °F 89% 29.98 in 10.0 mi NE 9.2 mph 25.3 mph 0.02 in Rain Light Rain
2:53 PM 35.1 °F 27.9 °F 33.1 °F 92% 29.98 in 5.0 mi NNE 9.2 mph 20.7 mph 0.04 in Rain Light Rain
3:04 PM 35.6 °F 28.6 °F 33.8 °F 93% 29.97 in 6.0 mi NE 9.2 mph 16.1 mph 0.00 in Rain Light Rain
3:24 PM 33.8 °F 27.0 °F 33.8 °F 100% 29.99 in 1.8 mi NE 8.1 mph - 0.01 in Snow Light Snow
3:34 PM 33.8 °F 27.7 °F 32.0 °F 93% 30.00 in 1.5 mi NNE 6.9 mph - 0.02 in Snow Light Snow
3:53 PM 34.0 °F 27.2 °F 32.0 °F 92% 30.04 in 2.0 mi NE 8.1 mph 17.3 mph 0.03 in Snow Light Snow
4:20 PM 33.8 °F 27.0 °F 33.8 °F 100% 30.01 in 2.0 mi NE 8.1 mph - 0.01 in Snow Light Snow
4:30 PM 33.8 °F 26.4 °F 33.8 °F 100% 30.02 in 4.0 mi NE 9.2 mph - 0.02 in Snow Light Snow
4:46 PM 35.6 °F 28.6 °F 33.8 °F 93% 30.04 in 6.0 mi NE 9.2 mph - 0.02 in Snow Light Snow
4:53 PM 34.0 °F 27.2 °F 33.1 °F 96% 30.07 in 8.0 mi NE 8.1 mph - 0.02 in   Overcast
5:04 PM 35.6 °F 29.9 °F 33.8 °F 93% 30.04 in 10.0 mi ENE 6.9 mph - 0.00 in   Overcast
5:15 PM 35.6 °F 28.6 °F 32.0 °F 87% 30.06 in 10.0 mi ENE 9.2 mph - 0.00 in   Overcast
5:31 PM 35.6 °F 30.7 °F 33.8 °F 93% 30.08 in 10.0 mi NE 5.8 mph - 0.00 in   Overcast
5:53 PM 35.1 °F 31.0 °F 32.0 °F 89% 30.13 in 10.0 mi NE 4.6 mph - 0.00 in   Overcast
6:03 PM 35.6 °F 32.8 °F 33.8 °F 93% 30.11 in 10.0 mi Variable 3.5 mph - N/A   Overcast
6:53 PM 36.0 °F - 30.9 °F 82% 30.21 in 10.0 mi Calm Calm - N/A   Partly Cloudy
7:53 PM 37.0 °F 32.4 °F 28.9 °F 73% 30.26 in 10.0 mi NE 5.8 mph - N/A   Clear
8:53 PM 35.1 °F 31.0 °F 28.0 °F 76% 30.31 in 10.0 mi North 4.6 mph - N/A   Clear
9:53 PM 33.1 °F - 27.0 °F 78% 30.35 in 10.0 mi Calm Calm - N/A   Clear
10:53 PM 30.0 °F - 27.0 °F 88% 30.38 in 6.0 mi Calm Calm - N/A   Clear
11:53 PM 30.0 °F - 27.0 °F 88% 30.40 in 5.0 mi Calm Calm - N/A   Clear